Retour au catalogue

ARIANE 44L DEB

ActifHEO
NORAD 33590·DEBRIS·🇫🇷 France

Lancé Jan 15, 1991 depuis Guiana Space Centre

Loading…

Prochains Passages (prochaines 24 heures)

TLE

FraisSource: Space-Track

Époque: Sep 13, 2026, 08:42 UTC

1 33590U 91003T   26256.36316532 -.00000511  00000-0 -57550-2 0  9996
2 33590   7.6345  67.9485 6795099  43.8928 174.0674  2.68404232133013

Suivez ARIANE 44L DEB en temps réel avec AllMySat

Download on the App Store